Location: Azul
(36.7830°S, 59.8500°W)
Time: 03:29:16
(UTC-03:00)

Envisat - Visible Passes

Search period start: 01 December 2023 00:00
Search period end: 11 December 2023 00:00
Orbit: 762 x 764 km, 98.3° (Epoch: 30 November)

Date Brightness Start Highest point End Pass type
(mag) Time Alt. Az. Time Alt. Az. Time Alt. Az.
01 Dec 4.1 03:13:31 10° NE 03:18:20 44° ESE 03:23:12 10° S visible
01 Dec 4.4 04:53:54 10° NW 04:57:29 19° W 05:01:05 10° SW visible
02 Dec 5.4 02:37:46 10° ENE 02:41:24 20° ESE 02:45:03 10° SSE visible
02 Dec 3.4 04:15:38 13° N 04:20:00 44° W 04:24:55 10° SSW visible
03 Dec 3.1 03:37:57 12° NNE 03:42:44 78° ESE 03:47:53 10° S visible
04 Dec 4.6 03:01:08 10° NE 03:05:40 33° ESE 03:10:15 10° S visible
04 Dec 4.1 04:40:28 10° NNW 04:44:38 25° W 04:48:51 10° SW visible
05 Dec 5.7 02:25:55 10° E 02:28:48 15° ESE 02:31:43 10° SSE visible
05 Dec 3.0 04:02:45 13° N 04:07:14 60° W 04:12:19 10° SSW visible
06 Dec 3.5 03:25:04 10° NNE 03:30:01 58° ESE 03:35:05 10° S visible
07 Dec 5.0 02:48:52 10° ENE 02:53:02 26° ESE 02:57:13 10° SSE visible
07 Dec 3.7 04:27:33 12° NNW 04:31:48 33° W 04:36:26 10° SSW visible
08 Dec 5.8 02:14:35 10° E 02:16:14 11° ESE 02:17:53 10° SE visible
08 Dec 2.9 03:49:52 13° N 03:54:28 80° WNW 03:59:38 10° SSW visible
09 Dec 4.1 03:12:31 10° NE 03:17:20 44° ESE 03:22:11 10° S visible
09 Dec 4.4 04:52:53 10° NW 04:56:28 19° W 05:00:05 10° SW visible
10 Dec 5.4 02:36:47 10° ENE 02:40:24 20° ESE 02:44:02 10° SSE visible
10 Dec 3.3 04:14:41 13° N 04:18:59 45° W 04:23:55 10° SSW visible
